Regional Weather Roundup
Issued by NWS Midland/Odessa, TX

Skip options and go directly to product.
Home | Oldest Version | Previous Version | Current Version | All | Graphics & Text | Save Text | Print | Product List | Glossary On

Skip product version selection by date and time.   
805
ASUS44 KMAF 290410
RWRMAF
MIDLAND AREA WEATHER ROUNDUP
NATIONAL WEATHER SERVICE MIDLAND TX
1100 PM CDT MON JUL 28 2014

...IN SOUTHWEST TEXAS AND SOUTHEAST NEW MEXICO...

CITY           SKY/WX    TMP DP  RH WIND       PRES   REMARKS
ALPINE         CLEAR     78  51  38 CALM      30.30R
ANDREWS        FAIR      81  63  53 E16G22    30.21R
ARTESIA        PTCLDY    84  59  42 E15G21    30.17R
BIG SPRING     MOCLDY    84  62  47 E15       30.20R
CARLSBAD       PTCLDY    87  60  40 E17G25    30.14R
DRYDEN           N/A     90  56  31 E12       30.09R
FORT STOCKTON  CLEAR     85  52  32 SE10      30.14R
GUAD PASS      CLEAR     75  52  44 NE16      30.31R
HOBBS          CLEAR     81  61  50 E15G21    30.23R
MARFA          PTCLDY    72  54  53 E8        30.29R
MIDLAND AIRPK  CLEAR     83  64  52 E15G22    30.19R
MIDLAND INTL   CLEAR     83  64  52 E17       30.17R
ODESSA         CLEAR     83  64  52 E16       30.19R
PECOS          PTCLDY    87  61  41 E15       30.11R
PRESIDIO       FAIR      89  49  24 MISG      30.08R
SEMINOLE       CLEAR     80  62  54 E12       30.23R
SNYDER         CLEAR     80  61  51 E12       30.21R
WINK           CLEAR     86  64  47 E24       30.12R
$$
...OTHER STATIONS IN TEXAS...

CITY           SKY/WX    TMP DP  RH WIND       PRES   REMARKS
ABILENE        MOCLDY    82  64  54 NE8       30.17R
AMARILLO       MOCLDY    67  64  90 SE7       30.29S
AUSTIN         PTCLDY    85  67  54 N8        30.05R
BROWNSVILLE    CLEAR     80  76  87 SE6       30.07R
CORPUS CHRISTI PTCLDY    81  75  82 S13       30.05S
DALLAS FTW     PTCLDY    81  62  52 NE8       30.11R
DEL RIO        CLEAR     88  62  41 E8        30.02R
EL PASO        MOCLDY    86  54  33 E7        30.13S
HOUSTON INT    MOCLDY    85  73  67 S9        30.03R
LUBBOCK        MOCLDY    74  63  68 E10       30.25R
SAN ANGELO     CLEAR     84  66  54 E12       30.13R
SAN ANTONIO    PTCLDY    88  70  55 S16       30.07R
WACO           MOCLDY    77  71  82 CALM      30.08S
WICHITA FALLS  NOT AVBL
$$
...OTHER LOCATIONS IN NEW MEXICO...

CITY           SKY/WX    TMP DP  RH WIND       PRES   REMARKS
ALAMAGORDO     MOCLDY    77  63  61 NW8       30.21R
ALBUQUERQUE    CLOUDY    72  58  61 E13       30.32R
CANNON AFB     CLOUDY    71  70  96 SE3       30.31R
CLOVIS         NOT AVBL
HOLLOMAN AFB   MOCLDY    77  63  61 NW8       30.19R
ROSWELL        MOCLDY    80  64  58 E10       30.18R
RUIDOSO        MOCLDY    64  59  82 S5        30.45S
SANTA FE       CLOUDY    65  57  75 SW9       30.42R
TRUTH OR CONSE MOCLDY    76  57  51 VRB6      30.28R
TUCUMCARI      MOCLDY    73  59  61 S7        30.27R
$$

USA.gov is the U.S. government's official web portal to all federal, state and local government web resources and services.